TimeEDT,TemperatureF,Dew PointF,Humidity,Sea Level PressureIn,VisibilityMPH,Wind Direction,Wind SpeedMPH,Gust SpeedMPH,PrecipitationIn,Events,Conditions,WindDirDegrees,DateUTC
12:53 AM,75.0,69.1,82,29.98,10.0,Calm,Calm,-,N/A,,Overcast,0,2013-08-06 04:53:00
1:53 AM,73.0,70.0,90,29.97,10.0,Calm,Calm,-,N/A,,Clear,0,2013-08-06 05:53:00
2:53 AM,73.0,70.0,90,29.95,10.0,Calm,Calm,-,N/A,,Mostly Cloudy,0,2013-08-06 06:53:00
3:53 AM,73.0,70.0,90,29.95,10.0,Calm,Calm,-,N/A,,Scattered Clouds,0,2013-08-06 07:53:00
4:53 AM,72.0,70.0,93,29.96,8.0,Calm,Calm,-,N/A,,Mostly Cloudy,0,2013-08-06 08:53:00
5:53 AM,73.0,70.0,90,29.96,9.0,Calm,Calm,-,N/A,,Overcast,0,2013-08-06 09:53:00
6:53 AM,72.0,70.0,93,29.97,8.0,Calm,Calm,-,N/A,,Scattered Clouds,0,2013-08-06 10:53:00
7:53 AM,73.9,71.1,91,29.98,9.0,Calm,Calm,-,N/A,,Overcast,0,2013-08-06 11:53:00
8:53 AM,75.9,71.1,85,30.00,9.0,Calm,Calm,-,N/A,,Overcast,0,2013-08-06 12:53:00
9:53 AM,78.1,72.0,81,30.00,8.0,Calm,Calm,-,N/A,,Partly Cloudy,0,2013-08-06 13:53:00
10:53 AM,81.0,70.0,69,30.01,10.0,Calm,Calm,-,N/A,,Clear,0,2013-08-06 14:53:00
11:53 AM,82.9,68.0,60,30.01,10.0,NW,6.9,-,N/A,,Clear,320,2013-08-06 15:53:00
12:53 PM,84.9,66.0,53,30.00,10.0,Variable,3.5,-,N/A,,Partly Cloudy,0,2013-08-06 16:53:00
1:53 PM,84.9,68.0,57,30.00,10.0,Calm,Calm,-,N/A,,Mostly Cloudy,0,2013-08-06 17:53:00
2:53 PM,86.0,70.0,59,29.97,10.0,NW,4.6,-,N/A,,Overcast,320,2013-08-06 18:53:00
3:53 PM,84.9,70.0,61,29.96,10.0,West,4.6,-,N/A,,Scattered Clouds,280,2013-08-06 19:53:00
4:53 PM,86.0,70.0,59,29.95,10.0,WNW,4.6,-,0.00,Rain,Light Rain,290,2013-08-06 20:53:00
5:53 PM,84.9,71.1,63,29.96,10.0,NW,4.6,-,0.00,Rain,Light Rain,320,2013-08-06 21:53:00
6:53 PM,84.9,72.0,65,29.96,10.0,NE,6.9,-,0.00,,Scattered Clouds,40,2013-08-06 22:53:00
7:53 PM,80.1,71.1,74,29.96,10.0,Calm,Calm,-,N/A,,Scattered Clouds,0,2013-08-06 23:53:00
8:53 PM,79.0,71.1,77,29.98,10.0,Calm,Calm,-,0.00,,Scattered Clouds,0,2013-08-07 00:53:00
9:53 PM,79.0,73.0,82,29.98,10.0,Calm,Calm,-,0.01,,Partly Cloudy,0,2013-08-07 01:53:00
10:53 PM,78.1,73.0,84,29.98,10.0,Calm,Calm,-,N/A,,Clear,0,2013-08-07 02:53:00
11:53 PM,75.0,73.0,94,29.98,10.0,Calm,Calm,-,N/A,,Clear,0,2013-08-07 03:53:00